******** Week 365 almanac for PRN-1 ******** ID: 1 Health: 0 Eccentricity: 0.001686096191 Time of Applicability(s): 319488 Orbital Inclination(rad): 0.9577576828 Rate of Right Ascen(r/s): -8.068907531e-09 SQRT(A) (m 1/2): 5153.568359 Right Ascen at Week(rad): 2.509408687 Argument of Perigee(rad): 0.1550354236 Mean Anom(rad): 1.803739325 Af0(s): 0.0002389147583 Af1(s/s): -7.275958e-12 week: 365 ******** Week 365 almanac for PRN-2 ******** ID: 2 Health: 0 Eccentricity: 0.01683092117 Time of Applicability(s): 319488 Orbital Inclination(rad): 0.9628509784 Rate of Right Ascen(r/s): -7.966046103e-09 SQRT(A) (m 1/2): 5153.528809 Right Ascen at Week(rad): 2.347025436 Argument of Perigee(rad): -0.7902139496 Mean Anom(rad): -2.959217469 Af0(s): 5.878659668e-05 Af1(s/s): 7.275958e-12 week: 365 ******** Week 365 almanac for PRN-3 ******** ID: 3 Health: 0 Eccentricity: 0.006658554077 Time of Applicability(s): 319488 Orbital Inclination(rad): 0.9940339316 Rate of Right Ascen(r/s): -7.623174678e-09 SQRT(A) (m 1/2): 5153.567871 Right Ascen at Week(rad): -2.785767535 Argument of Perigee(rad): 1.207632368 Mean Anom(rad): -0.2644330462 Af0(s): 0.0004039694336 Af1(s/s): -1.455192e-11 week: 365 ******** Week 365 almanac for PRN-4 ******** ID: 4 Health: 0 Eccentricity: 0.003732681274 Time of Applicability(s): 319488 Orbital Inclination(rad): 0.9707066378 Rate of Right Ascen(r/s): -7.680319916e-09 SQRT(A) (m 1/2): 5153.670898 Right Ascen at Week(rad): -1.716050751 Argument of Perigee(rad): -2.869552996 Mean Anom(rad): 2.688660859 Af0(s): 4.14520874e-05 Af1(s/s): 0 week: 365 ******** Week 365 almanac for PRN-5 ******** ID: 5 Health: 0 Eccentricity: 0.005480289459 Time of Applicability(s): 319488 Orbital Inclination(rad): 0.9805396944 Rate of Right Ascen(r/s): -7.760323248e-09 SQRT(A) (m 1/2): 5153.681641 Right Ascen at Week(rad): -2.845966918 Argument of Perigee(rad): 1.420518267 Mean Anom(rad): -2.924786042 Af0(s): -0.0001831428589 Af1(s/s): 0 week: 365 ******** Week 365 almanac for PRN-6 ******** ID: 6 Health: 0 Eccentricity: 0.003798007965 Time of Applicability(s): 319488 Orbital Inclination(rad): 0.9865677595 Rate of Right Ascen(r/s): -7.783181343e-09 SQRT(A) (m 1/2): 5153.61377 Right Ascen at Week(rad): 2.46096845 Argument of Perigee(rad): -0.5352769036 Mean Anom(rad): 1.022042788 Af0(s): -0.0004831052368 Af1(s/s): 0 week: 365 ******** Week 365 almanac for PRN-7 ******** ID: 7 Health: 0 Eccentricity: 0.02070474625 Time of Applicability(s): 319488 Orbital Inclination(rad): 0.9509626273 Rate of Right Ascen(r/s): -7.863184676e-09 SQRT(A) (m 1/2): 5153.554199 Right Ascen at Week(rad): -0.7073273051 Argument of Perigee(rad): -1.98015498 Mean Anom(rad): 0.1874770949 Af0(s): -0.0001349077026 Af1(s/s): -3.637979e-12 week: 365 ******** Week 365 almanac for PRN-8 ******** ID: 8 Health: 0 Eccentricity: 0.01159906387 Time of Applicability(s): 319488 Orbital Inclination(rad): 0.9429032361 Rate of Right Ascen(r/s): -8.000333246e-09 SQRT(A) (m 1/2): 5153.650879 Right Ascen at Week(rad): 1.338755143 Argument of Perigee(rad): 0.5344664704 Mean Anom(rad): 2.997844873 Af0(s): 0.0003677930664 Af1(s/s): -7.275958e-12 week: 365 ******** Week 365 almanac for PRN-9 ******** ID: 9 Health: 0 Eccentricity: 0.003345012665 Time of Applicability(s): 319488 Orbital Inclination(rad): 0.9649302414 Rate of Right Ascen(r/s): -7.737465153e-09 SQRT(A) (m 1/2): 5153.708984 Right Ascen at Week(rad): -1.780562208 Argument of Perigee(rad): 2.057337133 Mean Anom(rad): -2.691101895 Af0(s): 0.0006014321045 Af1(s/s): -3.637979e-12 week: 365 ******** Week 365 almanac for PRN-10 ******** ID: 10 Health: 0 Eccentricity: 0.01093244553 Time of Applicability(s): 319488 Orbital Inclination(rad): 0.9935605547 Rate of Right Ascen(r/s): -7.623174678e-09 SQRT(A) (m 1/2): 5153.609863 Right Ascen at Week(rad): -2.788275609 Argument of Perigee(rad): -2.257034393 Mean Anom(rad): -1.256739227 Af0(s): -0.0004657707275 Af1(s/s): 0 week: 365 ******** Week 365 almanac for PRN-11 ******** ID: 11 Health: 0 Eccentricity: 0.002210140228 Time of Applicability(s): 319488 Orbital Inclination(rad): 0.9634501897 Rate of Right Ascen(r/s): -8.011762293e-09 SQRT(A) (m 1/2): 5153.543457 Right Ascen at Week(rad): 2.478945162 Argument of Perigee(rad): -2.325342228 Mean Anom(rad): 2.178788265 Af0(s): -0.0002999623779 Af1(s/s): 1.455192e-11 week: 365 ******** Week 365 almanac for PRN-12 ******** ID: 12 Health: 0 Eccentricity: 0.008926391602 Time of Applicability(s): 319488 Orbital Inclination(rad): 0.9593755532 Rate of Right Ascen(r/s): -7.737465153e-09 SQRT(A) (m 1/2): 5153.700195 Right Ascen at Week(rad): 0.410368698 Argument of Perigee(rad): 1.570831531 Mean Anom(rad): -0.5098890722 Af0(s): -0.0004808442139 Af1(s/s): 0 week: 365 ******** Week 365 almanac for PRN-13 ******** ID: 13 Health: 0 Eccentricity: 0.01009607315 Time of Applicability(s): 319488 Orbital Inclination(rad): 0.9762313655 Rate of Right Ascen(r/s): -7.634603726e-09 SQRT(A) (m 1/2): 5153.625488 Right Ascen at Week(rad): -1.60493152 Argument of Perigee(rad): 0.9941285325 Mean Anom(rad): 2.767552637 Af0(s): 0.0005373697876 Af1(s/s): 0 week: 365 ******** Week 365 almanac for PRN-14 ******** ID: 14 Health: 0 Eccentricity: 0.006917953491 Time of Applicability(s): 319488 Orbital Inclination(rad): 0.9427294648 Rate of Right Ascen(r/s): -7.931758961e-09 SQRT(A) (m 1/2): 5153.599609 Right Ascen at Week(rad): 0.3551704816 Argument of Perigee(rad): -2.731766618 Mean Anom(rad): -0.6459253797 Af0(s): 0.0005871122925 Af1(s/s): 0 week: 365 ******** Week 365 almanac for PRN-15 ******** ID: 15 Health: 0 Eccentricity: 0.01664400101 Time of Applicability(s): 319488 Orbital Inclination(rad): 0.942951173 Rate of Right Ascen(r/s): -7.977475151e-09 SQRT(A) (m 1/2): 5153.660156 Right Ascen at Week(rad): -1.925530134 Argument of Perigee(rad): 1.508609435 Mean Anom(rad): 2.002085737 Af0(s): 0.0003172968872 Af1(s/s): 3.637979e-12 week: 365 ******** Week 365 almanac for PRN-16 ******** ID: 16 Health: 0 Eccentricity: 0.01501560211 Time of Applicability(s): 319488 Orbital Inclination(rad): 0.9584887206 Rate of Right Ascen(r/s): -7.737465153e-09 SQRT(A) (m 1/2): 5153.612305 Right Ascen at Week(rad): 0.4272776903 Argument of Perigee(rad): 0.9322228952 Mean Anom(rad): -2.242554453 Af0(s): 0.000190679602 Af1(s/s): 7.275958e-12 week: 365 ******** Week 365 almanac for PRN-17 ******** ID: 17 Health: 0 Eccentricity: 0.01261425018 Time of Applicability(s): 319488 Orbital Inclination(rad): 0.9585246732 Rate of Right Ascen(r/s): -7.840326581e-09 SQRT(A) (m 1/2): 5153.56543 Right Ascen at Week(rad): 1.444066145 Argument of Perigee(rad): -1.114958731 Mean Anom(rad): 2.954485947 Af0(s): -8.516519775e-05 Af1(s/s): -1.091394e-11 week: 365 ******** Week 365 almanac for PRN-18 ******** ID: 18 Health: 0 Eccentricity: 0.005829811096 Time of Applicability(s): 319488 Orbital Inclination(rad): 0.9715335494 Rate of Right Ascen(r/s): -7.920329913e-09 SQRT(A) (m 1/2): 5153.585449 Right Ascen at Week(rad): 2.455409642 Argument of Perigee(rad): -2.871901905 Mean Anom(rad): 0.9725071182 Af0(s): -0.0003014697266 Af1(s/s): 1.091394e-11 week: 365 ******** Week 365 almanac for PRN-19 ******** ID: 19 Health: 0 Eccentricity: 0.01129341125 Time of Applicability(s): 319488 Orbital Inclination(rad): 0.9576797854 Rate of Right Ascen(r/s): -7.840326581e-09 SQRT(A) (m 1/2): 5153.681152 Right Ascen at Week(rad): 1.487946385 Argument of Perigee(rad): 2.949297153 Mean Anom(rad): -1.556527235 Af0(s): 0.000550182251 Af1(s/s): 0 week: 365 ******** Week 365 almanac for PRN-20 ******** ID: 20 Health: 0 Eccentricity: 0.002227306366 Time of Applicability(s): 319488 Orbital Inclination(rad): 0.960322307 Rate of Right Ascen(r/s): -7.817468486e-09 SQRT(A) (m 1/2): 5153.710938 Right Ascen at Week(rad): -1.775134478 Argument of Perigee(rad): -1.934063276 Mean Anom(rad): -0.5815187845 Af0(s): 7.687478027e-05 Af1(s/s): 1.818989e-11 week: 365 ******** Week 365 almanac for PRN-21 ******** ID: 21 Health: 0 Eccentricity: 0.0008211135864 Time of Applicability(s): 319488 Orbital Inclination(rad): 0.9634322133 Rate of Right Ascen(r/s): -7.920329913e-09 SQRT(A) (m 1/2): 5153.737793 Right Ascen at Week(rad): -2.780631546 Argument of Perigee(rad): -0.2104545991 Mean Anom(rad): -0.91255079 Af0(s): 0.0003270946533 Af1(s/s): 0 week: 365 ******** Week 365 almanac for PRN-22 ******** ID: 22 Health: 0 Eccentricity: 0.01202249527 Time of Applicability(s): 319488 Orbital Inclination(rad): 0.9579434383 Rate of Right Ascen(r/s): -7.760323248e-09 SQRT(A) (m 1/2): 5153.569336 Right Ascen at Week(rad): 0.4306373929 Argument of Perigee(rad): -0.9926042889 Mean Anom(rad): -2.681288688 Af0(s): -1.733450928e-05 Af1(s/s): 7.275958e-12 week: 365 ******** Week 365 almanac for PRN-23 ******** ID: 23 Health: 0 Eccentricity: 0.006097316742 Time of Applicability(s): 319488 Orbital Inclination(rad): 0.9885331724 Rate of Right Ascen(r/s): -7.680319916e-09 SQRT(A) (m 1/2): 5153.66748 Right Ascen at Week(rad): -2.82052366 Argument of Perigee(rad): -2.740673518 Mean Anom(rad): -0.1870093356 Af0(s): 0.0005011934204 Af1(s/s): 3.637979e-12 week: 365 ******** Week 365 almanac for PRN-24 ******** ID: 24 Health: 0 Eccentricity: 0.01797771454 Time of Applicability(s): 319488 Orbital Inclination(rad): 0.9349277344 Rate of Right Ascen(r/s): -8.057478483e-09 SQRT(A) (m 1/2): 5153.583008 Right Ascen at Week(rad): -0.8164972274 Argument of Perigee(rad): 1.140523704 Mean Anom(rad): 1.16932292 Af0(s): -3.542269287e-05 Af1(s/s): 1.818989e-11 week: 365 ******** Week 365 almanac for PRN-25 ******** ID: 25 Health: 0 Eccentricity: 0.01289558411 Time of Applicability(s): 319488 Orbital Inclination(rad): 0.9477628393 Rate of Right Ascen(r/s): -7.874613723e-09 SQRT(A) (m 1/2): 5153.652832 Right Ascen at Week(rad): 0.3161693196 Argument of Perigee(rad): 1.15967487 Mean Anom(rad): -0.6233549646 Af0(s): 0.000340660791 Af1(s/s): -3.637979e-12 week: 365 ******** Week 365 almanac for PRN-26 ******** ID: 26 Health: 0 Eccentricity: 0.01102876663 Time of Applicability(s): 319488 Orbital Inclination(rad): 0.9285341504 Rate of Right Ascen(r/s): -8.068907531e-09 SQRT(A) (m 1/2): 5153.675781 Right Ascen at Week(rad): 0.2409844121 Argument of Perigee(rad): 0.7123112446 Mean Anom(rad): -1.446229298 Af0(s): -0.0002773521484 Af1(s/s): -3.637979e-12 week: 365 ******** Week 365 almanac for PRN-27 ******** ID: 27 Health: 0 Eccentricity: 0.01437568665 Time of Applicability(s): 319488 Orbital Inclination(rad): 0.9519932707 Rate of Right Ascen(r/s): -7.908900866e-09 SQRT(A) (m 1/2): 5153.619629 Right Ascen at Week(rad): 1.371115172 Argument of Perigee(rad): 0.8910788041 Mean Anom(rad): 3.105978535 Af0(s): -7.762845459e-05 Af1(s/s): -1.455192e-11 week: 365 ******** Week 365 almanac for PRN-28 ******** ID: 28 Health: 0 Eccentricity: 0.0003871917725 Time of Applicability(s): 319488 Orbital Inclination(rad): 0.9618742641 Rate of Right Ascen(r/s): -7.783181343e-09 SQRT(A) (m 1/2): 5153.508789 Right Ascen at Week(rad): -0.7326585859 Argument of Perigee(rad): -0.3410519411 Mean Anom(rad): 0.8458158846 Af0(s): -0.0004424068237 Af1(s/s): 7.275958e-12 week: 365 ******** Week 365 almanac for PRN-29 ******** ID: 29 Health: 0 Eccentricity: 0.003471374512 Time of Applicability(s): 319488 Orbital Inclination(rad): 0.961179179 Rate of Right Ascen(r/s): -7.828897533e-09 SQRT(A) (m 1/2): 5153.692383 Right Ascen at Week(rad): 1.46090136 Argument of Perigee(rad): 2.755857906 Mean Anom(rad): 2.943244744 Af0(s): -0.0002720764282 Af1(s/s): 7.275958e-12 week: 365 ******** Week 365 almanac for PRN-30 ******** ID: 30 Health: 0 Eccentricity: 0.008183002472 Time of Applicability(s): 319488 Orbital Inclination(rad): 0.9362340149 Rate of Right Ascen(r/s): -8.046049436e-09 SQRT(A) (m 1/2): 5153.677734 Right Ascen at Week(rad): -0.7168618795 Argument of Perigee(rad): -2.294375365 Mean Anom(rad): -0.02781538602 Af0(s): 0.0001424444458 Af1(s/s): 1.455192e-11 week: 365 ******** Week 365 almanac for PRN-31 ******** ID: 31 Health: 0 Eccentricity: 0.01082038879 Time of Applicability(s): 319488 Orbital Inclination(rad): 0.9547256739 Rate of Right Ascen(r/s): -7.851755628e-09 SQRT(A) (m 1/2): 5153.527832 Right Ascen at Week(rad): -0.682946523 Argument of Perigee(rad): 0.9427581524 Mean Anom(rad): -0.8950770411 Af0(s): -0.0001236025879 Af1(s/s): 3.637979e-12 week: 365 ******** Week 365 almanac for PRN-32 ******** ID: 32 Health: 0 Eccentricity: 0.009396076202 Time of Applicability(s): 319488 Orbital Inclination(rad): 0.967944274 Rate of Right Ascen(r/s): -7.714607058e-09 SQRT(A) (m 1/2): 5153.699707 Right Ascen at Week(rad): -1.763431508 Argument of Perigee(rad): -1.984421364 Mean Anom(rad): -2.624765091 Af0(s): -6.029394531e-06 Af1(s/s): 1.818989e-11 week: 365